SCP
0 0 0 0 0 0 0 0 0 0 0 0 0 0 0 0 0 0 0 0 0 0 0 0 0 0 0 0 0 0 0 0 0 0 0 0 0 0 0 0 0 0 0
0 0 0 0 0 0 0 0 0 0 0 0 0 0 0 0 0 0 0 0 0 0 0 0 0 0 0 0 0 0 0 0 0 0 0 0 0 0 0 0 0 0 0
0 0 0 0 0 0 0 0 0 0 0 0 0 0 0 0 0 0 0 0 0 0 0 0 0 0 0 0 0 0 0 0 0 0 0 0 0 0 0 0 0 0 0
0 0 0 0 0 0 0 0 0 0 0 0 0 0 0 0 0 0 0 0 0 0 0 0 0 0 0 0 0 0 0 0 0 0 0 0 0 0 0 0 0 0 0
0 0 0 0 0 0 0 0 0 0 0 0 0 0 0 0 0 0 0 0 0 0 1 0 0 0 0 0 0 0 0 0 0 0 0 0 0 0 0 0 0 0 0
0 0 0 0 0 0 0 0 0 0 0 0 0 0 0 0 0 0 0 0 0 0 0 0 0 0 0 0 0 0 0 0 0 0 0 0 0 0 0 0 0 0 0
0 0 0 0 0 0 0 0 0 0 0 0 0 0 0 0 0 0 0 0 0 0 0 0 0 0 0 0 0 0 0 0 0 0 0 0 0 0 0 0 0 0 0
0 0 0 0 0 0 0 0 0 0 0 0 0 0 0 0 0 0 0 0 0 0 0 0 0 0 0 0 0 0 0 0 0 0 0 0 0 0 0 0 0 0 0
0 0 0 0 0 0 0 0 0 -0 0 0 0 0 0 0 0 0 0 0 0 0 0 0 0 0 0 0 0 0 0 0 0 0 0 0 0 0 0 0 0 0 0
0 0 0 0 0 0 0 0 0 0 -0 0 0 0 0 0 0 0 0 0 0 0 0 0 0 0 0 0 0 0 0 0 0 0 0 0 0 0 0 0 0 0 0
-0 -0 0 0 0 0 0 0 0 -0 0 0 0 0 0 0 0 0 0 0 0 0 0 0 0 0 0 0 0 0 0 0 0 0 0 0 0 0 0 0 0 0 0
0 -0 0 0 0 0 0 0 0 0 0 0 0 0 0 0 0 0 0 0 0 0 0 0 0 0 0 0 0 0 0 0 0 0 0 0 0 0 0 0 0 0 0
0 0 0 0 0 0 0 -0 -0 0 0 -0 -0 0 0 0 0 0 0 0 0 0 0 0 0 0 0 0 0 0 0 0 0 0 0 0 0 0 0 0 0 0 0
0 -0 -0 0 -0 0 0 0 0 0 0 0 -0 0 0 0 0 0 0 0 0 0 0 0 0 0 0 0 0 0 0 0 0 0 0 0 0 -0 -0 -0 -0 -0 -0
0 0 0 0 0 -0 0 0 0 0 0 0 -0 -0 0 0 0 0 0 0 0 0 0 0 0 0 0 0 0 0 -0 0 0 0 0 0 -0 -0 0 0 0 -0 -0
0 0 0 0 0 0 0 0 0 0 0 0 0 0 0 0 0 0 0 0 0 -0 -0 0 0 0 -0 -0 -0 -0 -0 -0 0 0 0 0 0 0 0 0 0 0 0
0 0 0 0 0 0 0 0 0 0 0 0 0 0 0 0 0 0 0 0 -0 0 -0 -0 -0 -0 -0 0 0 0 -0 -0 0 -0 -0 -0 -0 -0 -0 -0 -0 -0 0
0 0 0 0 0 0 0 0 0 0 0 0 0 0 0 0 0 0 -0 0 -0 0 0 -0 -0 -0 0 0 -0 -0 0 0 0 0 0 -0 -0 -0 -0 -0 -0 -0 0
0 0 0 0 0 0 0 0 0 0 0 0 0 -0 -0 -0 0 0 0 0 0 0 -0 -0 -0 0 0 0 0 0 0 0 0 0 0 0 0 0 0 0 0 0 0
0 0 0 0 0 0 0 0 0 0 0 0 0 0 0 0 0 0 0 0 0 0 0 0 0 0 0 0 0 0 0 0 0 0 0 0 -0 0 0 0 0 0 0
0 0 0 0 0 0 0 0 0 0 0 0 0 0 0 0 0 0 0 0 0 0 0 0 0 0 0 0 0 0 0 0 0 0 0 0 0 0 0 0 0 0 0
0 0 0 0 0 0 0 0 0 0 0 0 0 0 0 0 0 0 0 0 0 0 0 0 0 0 0 0 0 0 0 0 0 0 0 0 0 0 0 0 0 0 0
0 0 0 0 0 0 0 0 0 0 0 0 0 0 0 0 0 0 0 0 0 0 0 0 0 0 0 0 0 0 0 0 0 0 0 0 0 0 0 0 0 0 0
0 0 0 0 0 0 0 0 0 0 0 0 0 0 0 0 0 0 0 0 0 0 0 0 0 0 0 0 0 0 0 0 0 0 0 0 0 0 0 0 0 0 0
0 0 0 0 0 0 0 0 0 0 0 0 0 0 0 0 0 0 0 0 0 0 0 0 0 0 0 0 0 0 0 0 0 0 0 0 0 0 0 0 0 0 0
0 0 0 0 0 0 0 0 0 0 0 0 0 0 0 0 0 0 0 0 0 0 0 0 0 0 0 0 0 0 0 0 0 0 0 0 0 0 0 0 0 0 0
Wind_Speed_500mb
26 27 28 27 23 23 27 34 41 46 47 43 38 35 37 36 38 34 26 24 22 22 19 16 15 12 8 1 1 3 12 12 8 6 3 5 7 8 9 10 13 13 14
23 25 23 19 18 21 24 27 29 32 38 38 38 44 42 38 31 42 34 31 29 29 29 21 21 20 9 5 5 10 11 9 7 6 7 9 10 10 11 13 15 16 17
30 26 29 25 20 28 31 38 40 40 39 32 29 31 35 38 42 41 39 37 35 35 30 20 20 18 9 8 11 13 10 3 4 5 7 9 9 10 13 14 18 21 22
31 29 27 28 31 30 34 43 41 33 29 30 33 29 30 31 32 36 35 33 35 35 31 25 23 15 9 11 14 16 8 6 5 4 3 4 9 13 18 23 26 28 30
32 32 31 33 33 34 34 32 33 32 28 25 27 25 25 29 35 29 29 29 38 37 33 24 17 15 14 11 10 6 5 2 5 4 5 13 17 19 22 25 26 28 30
36 39 39 37 32 30 29 31 31 29 30 26 25 26 23 26 31 35 30 33 36 37 33 26 16 18 12 7 7 3 2 3 7 7 11 17 21 25 27 28 29 27 30
31 29 27 28 27 27 28 28 29 28 24 24 25 23 23 30 27 26 28 36 36 39 31 26 22 18 11 9 9 7 4 7 11 16 21 26 28 28 31 31 30 30 32
31 32 28 25 27 32 30 30 29 28 27 23 21 20 17 13 17 25 31 36 36 39 32 31 21 14 13 12 11 11 11 10 16 21 29 31 32 30 30 33 32 29 31
29 30 31 28 26 28 28 28 31 31 26 23 21 19 13 11 19 16 31 36 38 33 35 25 21 17 14 12 12 16 15 17 21 30 33 34 34 31 32 36 32 33 37
29 29 29 28 27 29 30 24 22 23 24 23 18 21 25 11 12 16 27 39 40 41 32 25 21 18 16 17 20 21 23 24 28 32 34 34 29 27 29 35 24 23 27
35 26 22 17 13 21 16 13 13 18 17 18 16 16 16 16 19 19 35 28 33 30 26 23 20 18 20 22 23 22 25 28 30 33 31 30 27 24 24 23 21 18 17
40 32 19 9 5 6 9 16 18 16 13 10 11 10 11 17 15 18 33 30 19 22 23 20 19 21 23 24 25 27 27 28 29 30 30 27 23 22 21 19 17 13 11
35 37 30 20 21 16 13 8 10 11 7 5 4 15 11 10 19 19 18 27 14 11 12 18 19 18 20 23 27 29 30 29 26 29 25 20 17 14 13 9 10 13 17
32 33 37 23 24 12 18 17 12 5 1 9 18 22 18 18 16 19 11 12 9 8 9 10 12 15 19 24 28 29 25 22 23 14 4 5 6 5 5 8 11 14 17
26 23 25 23 33 30 27 21 21 25 24 22 22 20 18 18 18 16 13 12 8 10 9 7 5 10 15 18 18 18 17 16 8 3 3 3 7 11 12 14 15 16 18
21 21 21 19 21 26 26 27 32 29 30 28 24 20 20 20 17 15 13 10 7 6 5 7 4 1 7 9 7 6 3 1 4 6 8 10 15 19 18 17 16 17 18
20 18 19 16 11 17 22 27 28 27 26 23 20 17 16 16 13 10 8 6 4 4 4 3 8 4 6 5 6 7 7 6 10 12 14 16 18 16 14 14 15 18 20
21 18 19 15 7 11 13 16 19 19 16 13 11 10 9 8 7 5 6 6 12 12 9 6 6 4 3 6 9 12 14 15 13 13 10 7 6 7 8 12 14 15 17
25 17 14 12 11 9 11 11 14 15 14 10 6 5 5 8 9 11 15 16 12 10 7 5 2 5 7 10 11 12 13 15 16 11 11 12 12 13 14 14 14 12 11
25 18 16 13 11 11 10 9 11 14 17 19 20 21 19 18 18 20 17 13 11 10 8 8 5 6 11 13 16 18 13 13 11 9 8 8 13 18 18 16 18 20 16
31 29 24 19 14 10 9 12 14 16 19 21 22 24 25 26 24 21 18 16 16 15 7 5 6 6 7 10 14 18 18 19 13 11 14 14 16 16 20 25 25 24 25
35 35 36 33 29 20 14 13 17 19 22 24 26 26 24 23 20 18 17 15 15 13 9 7 7 8 13 16 19 18 19 19 12 14 19 15 19 16 17 19 25 30 29
28 29 30 30 29 27 27 25 24 23 21 18 18 19 20 19 17 16 17 16 14 14 12 11 11 12 14 20 26 28 21 19 19 22 23 22 21 16 16 22 25 21 23
21 21 25 26 26 25 24 22 21 20 19 18 18 20 21 20 19 14 15 16 19 16 18 14 12 15 21 24 25 26 23 26 27 23 18 19 19 17 11 17 10 10 12
16 14 17 21 24 22 18 16 15 14 13 13 12 11 11 11 12 12 14 15 17 20 19 12 13 15 17 23 27 27 21 21 24 18 22 19 18 19 12 5 8 10 13
12 9 8 9 10 10 14 12 9 11 13 12 11 11 15 11 13 14 17 19 24 26 16 13 16 20 24 18 13 16 20 22 27 25 20 16 12 14 13 4 8 13 10
Wind_Direction_500mb
299 300 302 303 306 306 295 286 284 281 278 280 274 265 244 234 238 240 234 226 239 245 250 256 232 213 179 144 233 6 351 349 336 318 301 232 235 258 273 277 278 285 286
294 299 298 302 314 325 325 318 309 301 297 295 283 276 274 272 269 249 246 247 254 241 249 239 225 207 180 247 273 332 333 320 310 312 281 262 264 268 274 277 274 271 275
279 277 280 278 291 315 311 309 307 299 297 291 280 275 264 260 255 257 253 261 261 249 242 238 230 214 215 217 290 312 314 325 312 278 258 271 280 284 288 293 297 296 298
301 284 280 283 292 297 304 306 308 299 291 286 285 282 278 271 258 259 259 256 234 225 235 225 218 201 202 234 291 300 304 312 346 328 315 298 286 285 284 287 287 288 292
288 289 291 294 295 300 307 306 307 297 288 284 279 276 276 273 263 258 251 237 222 217 221 215 208 194 213 252 263 265 305 276 0 346 316 311 304 301 298 298 299 303 301
292 288 288 287 289 294 296 298 303 295 288 275 275 270 266 277 265 253 237 224 220 215 209 200 181 199 209 232 202 229 284 275 309 302 313 320 312 305 301 304 305 297 297
302 297 291 288 289 293 294 298 296 298 289 274 273 268 259 262 257 240 219 214 206 201 196 186 190 178 192 206 198 203 239 288 301 311 314 316 313 308 301 301 305 293 292
296 295 296 304 296 300 291 295 294 295 292 281 256 253 239 226 217 210 207 204 194 180 182 191 191 194 204 218 230 252 268 277 291 296 304 308 309 306 300 294 292 287 289
313 305 293 291 300 300 297 288 291 286 287 286 261 241 242 224 172 187 197 183 176 174 187 188 188 200 220 225 261 270 264 289 293 300 299 298 299 299 289 286 288 290 290
334 318 310 293 280 299 307 293 288 286 289 293 265 254 246 252 203 161 160 165 172 185 190 196 207 214 232 250 260 263 277 281 287 289 290 291 291 295 297 294 295 282 297
360 347 329 313 292 295 299 313 309 291 288 287 266 260 231 223 212 180 162 168 181 191 198 217 232 237 245 253 260 265 269 279 286 289 284 288 298 284 289 297 301 300 303
17 19 22 37 25 341 340 325 316 303 278 286 263 202 192 191 145 167 166 172 176 192 209 219 237 245 249 253 259 265 275 286 292 295 290 290 286 279 293 305 316 327 330
29 26 29 48 13 5 329 4 9 338 283 260 202 134 125 146 188 116 156 173 171 197 221 236 241 241 246 258 266 274 281 285 292 299 295 290 290 283 298 317 346 348 349
19 23 24 25 36 41 36 49 40 355 178 106 83 94 110 112 128 152 166 166 171 181 200 213 234 250 262 269 271 277 282 271 287 297 304 284 298 299 307 332 331 337 343
10 11 23 33 33 36 45 51 53 85 97 109 112 102 99 100 104 114 130 155 176 181 189 218 204 268 280 286 285 286 283 276 269 220 226 301 301 295 299 307 314 319 326
10 13 13 16 31 44 38 63 75 80 87 87 85 86 92 96 100 109 119 131 151 168 185 183 215 215 47 44 26 34 19 197 246 258 276 284 287 290 287 293 302 304 314
8 7 11 13 35 56 67 59 75 77 77 78 79 76 79 81 81 84 91 98 105 111 122 146 165 122 75 55 32 16 359 323 302 300 295 292 287 288 292 302 298 303 308
3 2 4 21 69 64 63 73 62 57 55 58 60 56 56 50 44 67 90 82 101 108 108 110 113 97 50 354 347 341 338 334 321 300 316 318 288 272 274 287 299 297 302
10 15 27 54 73 80 73 60 46 36 33 31 35 33 52 67 78 94 109 103 83 84 85 93 73 62 50 29 10 1 352 350 337 323 293 278 276 282 291 296 297 309 323
23 32 46 58 67 74 71 67 53 48 58 71 77 83 88 87 92 109 99 77 73 75 75 63 52 45 39 17 16 10 351 348 348 0 334 306 287 275 290 296 300 283 281
46 54 58 57 61 67 74 80 63 68 72 77 79 82 81 81 83 88 89 78 68 58 52 35 21 20 352 349 340 344 346 340 321 329 328 315 303 289 286 290 293 284 277
53 54 59 61 62 67 79 83 86 83 80 80 82 81 80 77 76 73 67 56 40 25 12 355 338 335 343 331 330 331 331 336 346 329 334 326 309 298 283 295 285 273 279
48 46 49 52 54 60 71 81 85 84 80 78 78 77 73 62 60 53 40 34 28 11 343 327 308 306 318 326 317 321 317 321 316 316 311 311 310 307 283 286 296 283 265
34 48 48 56 62 65 71 77 80 80 78 74 71 65 53 39 33 17 24 22 9 5 3 345 316 325 317 318 326 326 311 311 324 321 326 310 317 324 293 298 297 299 264
29 38 52 55 61 62 62 67 69 65 61 72 70 65 39 24 6 357 350 350 357 351 342 344 343 338 330 326 324 323 323 322 330 327 323 315 310 318 315 301 258 320 301
2 4 6 17 27 36 43 48 54 53 43 12 348 351 337 327 327 327 331 338 339 335 333 331 330 330 327 321 336 353 353 335 320 318 307 316 339 355 333 331 344 320 312
Wind_Speed_850mb
26 27 28 27 23 23 27 34 41 46 47 43 38 35 37 36 38 34 26 24 22 22 19 16 15 12 8 1 1 3 12 12 8 6 3 5 7 8 9 10 13 13 14
23 25 23 19 18 21 24 27 29 32 38 38 38 44 42 38 31 42 34 31 29 29 29 21 21 20 9 5 5 10 11 9 7 6 7 9 10 10 11 13 15 16 17
30 26 29 25 20 28 31 38 40 40 39 32 29 31 35 38 42 41 39 37 35 35 30 20 20 18 9 8 11 13 10 3 4 5 7 9 9 10 13 14 18 21 22
31 29 27 28 31 30 34 43 41 33 29 30 33 29 30 31 32 36 35 33 35 35 31 25 23 15 9 11 14 16 8 6 5 4 3 4 9 13 18 23 26 28 30
32 32 31 33 33 34 34 32 33 32 28 25 27 25 25 29 35 29 29 29 38 37 33 24 17 15 14 11 10 6 5 2 5 4 5 13 17 19 22 25 26 28 30
36 39 39 37 32 30 29 31 31 29 30 26 25 26 23 26 31 35 30 33 36 37 33 26 16 18 12 7 7 3 2 3 7 7 11 17 21 25 27 28 29 27 30
31 29 27 28 27 27 28 28 29 28 24 24 25 23 23 30 27 26 28 36 36 39 31 26 22 18 11 9 9 7 4 7 11 16 21 26 28 28 31 31 30 30 32
31 32 28 25 27 32 30 30 29 28 27 23 21 20 17 13 17 25 31 36 36 39 32 31 21 14 13 12 11 11 11 10 16 21 29 31 32 30 30 33 32 29 31
29 30 31 28 26 28 28 28 31 31 26 23 21 19 13 11 19 16 31 36 38 33 35 25 21 17 14 12 12 16 15 17 21 30 33 34 34 31 32 36 32 33 37
29 29 29 28 27 29 30 24 22 23 24 23 18 21 25 11 12 16 27 39 40 41 32 25 21 18 16 17 20 21 23 24 28 32 34 34 29 27 29 35 24 23 27
35 26 22 17 13 21 16 13 13 18 17 18 16 16 16 16 19 19 35 28 33 30 26 23 20 18 20 22 23 22 25 28 30 33 31 30 27 24 24 23 21 18 17
40 32 19 9 5 6 9 16 18 16 13 10 11 10 11 17 15 18 33 30 19 22 23 20 19 21 23 24 25 27 27 28 29 30 30 27 23 22 21 19 17 13 11
35 37 30 20 21 16 13 8 10 11 7 5 4 15 11 10 19 19 18 27 14 11 12 18 19 18 20 23 27 29 30 29 26 29 25 20 17 14 13 9 10 13 17
32 33 37 23 24 12 18 17 12 5 1 9 18 22 18 18 16 19 11 12 9 8 9 10 12 15 19 24 28 29 25 22 23 14 4 5 6 5 5 8 11 14 17
26 23 25 23 33 30 27 21 21 25 24 22 22 20 18 18 18 16 13 12 8 10 9 7 5 10 15 18 18 18 17 16 8 3 3 3 7 11 12 14 15 16 18
21 21 21 19 21 26 26 27 32 29 30 28 24 20 20 20 17 15 13 10 7 6 5 7 4 1 7 9 7 6 3 1 4 6 8 10 15 19 18 17 16 17 18
20 18 19 16 11 17 22 27 28 27 26 23 20 17 16 16 13 10 8 6 4 4 4 3 8 4 6 5 6 7 7 6 10 12 14 16 18 16 14 14 15 18 20
21 18 19 15 7 11 13 16 19 19 16 13 11 10 9 8 7 5 6 6 12 12 9 6 6 4 3 6 9 12 14 15 13 13 10 7 6 7 8 12 14 15 17
25 17 14 12 11 9 11 11 14 15 14 10 6 5 5 8 9 11 15 16 12 10 7 5 2 5 7 10 11 12 13 15 16 11 11 12 12 13 14 14 14 12 11
25 18 16 13 11 11 10 9 11 14 17 19 20 21 19 18 18 20 17 13 11 10 8 8 5 6 11 13 16 18 13 13 11 9 8 8 13 18 18 16 18 20 16
31 29 24 19 14 10 9 12 14 16 19 21 22 24 25 26 24 21 18 16 16 15 7 5 6 6 7 10 14 18 18 19 13 11 14 14 16 16 20 25 25 24 25
35 35 36 33 29 20 14 13 17 19 22 24 26 26 24 23 20 18 17 15 15 13 9 7 7 8 13 16 19 18 19 19 12 14 19 15 19 16 17 19 25 30 29
28 29 30 30 29 27 27 25 24 23 21 18 18 19 20 19 17 16 17 16 14 14 12 11 11 12 14 20 26 28 21 19 19 22 23 22 21 16 16 22 25 21 23
21 21 25 26 26 25 24 22 21 20 19 18 18 20 21 20 19 14 15 16 19 16 18 14 12 15 21 24 25 26 23 26 27 23 18 19 19 17 11 17 10 10 12
16 14 17 21 24 22 18 16 15 14 13 13 12 11 11 11 12 12 14 15 17 20 19 12 13 15 17 23 27 27 21 21 24 18 22 19 18 19 12 5 8 10 13
12 9 8 9 10 10 14 12 9 11 13 12 11 11 15 11 13 14 17 19 24 26 16 13 16 20 24 18 13 16 20 22 27 25 20 16 12 14 13 4 8 13 10
Wind_Direction_850mb
299 300 302 303 306 306 295 286 284 281 278 280 274 265 244 234 238 240 234 226 239 245 250 256 232 213 179 144 233 6 351 349 336 318 301 232 235 258 273 277 278 285 286
294 299 298 302 314 325 325 318 309 301 297 295 283 276 274 272 269 249 246 247 254 241 249 239 225 207 180 247 273 332 333 320 310 312 281 262 264 268 274 277 274 271 275
279 277 280 278 291 315 311 309 307 299 297 291 280 275 264 260 255 257 253 261 261 249 242 238 230 214 215 217 290 312 314 325 312 278 258 271 280 284 288 293 297 296 298
301 284 280 283 292 297 304 306 308 299 291 286 285 282 278 271 258 259 259 256 234 225 235 225 218 201 202 234 291 300 304 312 346 328 315 298 286 285 284 287 287 288 292
288 289 291 294 295 300 307 306 307 297 288 284 279 276 276 273 263 258 251 237 222 217 221 215 208 194 213 252 263 265 305 276 0 346 316 311 304 301 298 298 299 303 301
292 288 288 287 289 294 296 298 303 295 288 275 275 270 266 277 265 253 237 224 220 215 209 200 181 199 209 232 202 229 284 275 309 302 313 320 312 305 301 304 305 297 297
302 297 291 288 289 293 294 298 296 298 289 274 273 268 259 262 257 240 219 214 206 201 196 186 190 178 192 206 198 203 239 288 301 311 314 316 313 308 301 301 305 293 292
296 295 296 304 296 300 291 295 294 295 292 281 256 253 239 226 217 210 207 204 194 180 182 191 191 194 204 218 230 252 268 277 291 296 304 308 309 306 300 294 292 287 289
313 305 293 291 300 300 297 288 291 286 287 286 261 241 242 224 172 187 197 183 176 174 187 188 188 200 220 225 261 270 264 289 293 300 299 298 299 299 289 286 288 290 290
334 318 310 293 280 299 307 293 288 286 289 293 265 254 246 252 203 161 160 165 172 185 190 196 207 214 232 250 260 263 277 281 287 289 290 291 291 295 297 294 295 282 297
360 347 329 313 292 295 299 313 309 291 288 287 266 260 231 223 212 180 162 168 181 191 198 217 232 237 245 253 260 265 269 279 286 289 284 288 298 284 289 297 301 300 303
17 19 22 37 25 341 340 325 316 303 278 286 263 202 192 191 145 167 166 172 176 192 209 219 237 245 249 253 259 265 275 286 292 295 290 290 286 279 293 305 316 327 330
29 26 29 48 13 5 329 4 9 338 283 260 202 134 125 146 188 116 156 173 171 197 221 236 241 241 246 258 266 274 281 285 292 299 295 290 290 283 298 317 346 348 349
19 23 24 25 36 41 36 49 40 355 178 106 83 94 110 112 128 152 166 166 171 181 200 213 234 250 262 269 271 277 282 271 287 297 304 284 298 299 307 332 331 337 343
10 11 23 33 33 36 45 51 53 85 97 109 112 102 99 100 104 114 130 155 176 181 189 218 204 268 280 286 285 286 283 276 269 220 226 301 301 295 299 307 314 319 326
10 13 13 16 31 44 38 63 75 80 87 87 85 86 92 96 100 109 119 131 151 168 185 183 215 215 47 44 26 34 19 197 246 258 276 284 287 290 287 293 302 304 314
8 7 11 13 35 56 67 59 75 77 77 78 79 76 79 81 81 84 91 98 105 111 122 146 165 122 75 55 32 16 359 323 302 300 295 292 287 288 292 302 298 303 308
3 2 4 21 69 64 63 73 62 57 55 58 60 56 56 50 44 67 90 82 101 108 108 110 113 97 50 354 347 341 338 334 321 300 316 318 288 272 274 287 299 297 302
10 15 27 54 73 80 73 60 46 36 33 31 35 33 52 67 78 94 109 103 83 84 85 93 73 62 50 29 10 1 352 350 337 323 293 278 276 282 291 296 297 309 323
23 32 46 58 67 74 71 67 53 48 58 71 77 83 88 87 92 109 99 77 73 75 75 63 52 45 39 17 16 10 351 348 348 0 334 306 287 275 290 296 300 283 281
46 54 58 57 61 67 74 80 63 68 72 77 79 82 81 81 83 88 89 78 68 58 52 35 21 20 352 349 340 344 346 340 321 329 328 315 303 289 286 290 293 284 277
53 54 59 61 62 67 79 83 86 83 80 80 82 81 80 77 76 73 67 56 40 25 12 355 338 335 343 331 330 331 331 336 346 329 334 326 309 298 283 295 285 273 279
48 46 49 52 54 60 71 81 85 84 80 78 78 77 73 62 60 53 40 34 28 11 343 327 308 306 318 326 317 321 317 321 316 316 311 311 310 307 283 286 296 283 265
34 48 48 56 62 65 71 77 80 80 78 74 71 65 53 39 33 17 24 22 9 5 3 345 316 325 317 318 326 326 311 311 324 321 326 310 317 324 293 298 297 299 264
29 38 52 55 61 62 62 67 69 65 61 72 70 65 39 24 6 357 350 350 357 351 342 344 343 338 330 326 324 323 323 322 330 327 323 315 310 318 315 301 258 320 301
2 4 6 17 27 36 43 48 54 53 43 12 348 351 337 327 327 327 331 338 339 335 333 331 330 330 327 321 336 353 353 335 320 318 307 316 339 355 333 331 344 320 312